RH
94 97 99 97 93 89 86 83 80 79 78 76 71 68 68 67 64 64 68 74 83 91 96 99 101 100 99 99 100 100 100 100 100 99 98 97 97 98 98 96 94 91 88 85 81 78 75 73 71 68 68 69 64 58 54 49 46 44 45 46 47 47 46
97 99 99 98 96 93 90 87 83 78 74 74 74 73 72 71 67 65 67 70 76 83 90 94 98 100 100 100 100 100 101 100 100 100 99 97 96 95 97 96 95 93 92 89 84 80 77 74 72 70 67 67 66 64 62 57 53 51 51 53 54 54 52
97 98 97 96 97 95 93 90 86 82 77 73 73 73 74 75 73 68 66 67 69 75 84 88 92 96 99 101 100 100 100 100 99 100 100 99 97 94 94 94 94 94 93 91 87 83 81 77 73 71 66 64 68 71 69 63 59 57 59 60 61 60 58
97 96 95 95 96 96 96 94 91 89 86 81 76 74 74 77 76 71 67 66 67 70 77 82 85 89 93 98 101 100 100 100 100 100 100 100 99 96 95 94 93 93 93 92 90 86 83 79 75 72 67 67 71 72 69 65 63 62 63 66 66 62 59
96 95 93 94 94 92 94 94 92 91 91 89 84 78 76 77 77 74 70 68 67 68 71 74 77 80 83 89 95 98 99 98 99 100 100 100 100 99 98 97 95 94 94 93 92 89 85 79 74 70 69 72 74 72 69 68 68 67 66 66 65 60 58
95 94 91 89 90 90 90 91 90 88 88 89 90 86 82 80 78 76 73 71 68 67 68 69 70 73 77 79 83 89 94 96 96 96 97 98 99 99 100 99 98 97 96 95 93 91 88 83 78 74 73 74 74 73 74 73 73 71 67 63 62 62 64
91 92 89 86 85 87 90 91 90 87 85 87 92 92 89 87 83 78 74 72 71 68 65 63 64 68 71 72 74 77 83 89 92 93 93 92 94 96 98 100 99 98 97 95 93 93 91 89 86 82 79 78 77 77 77 74 71 68 64 62 66 71 74
90 89 88 85 83 84 87 88 88 87 87 90 94 94 91 91 90 85 79 75 73 69 65 62 62 63 64 65 66 69 72 78 84 88 90 90 89 90 92 94 96 97 97 95 94 94 94 92 90 86 82 79 77 74 71 67 66 67 67 68 74 81 83
89 87 86 85 84 84 85 86 87 89 91 95 98 96 91 90 88 87 84 79 75 72 69 67 65 63 62 60 60 62 64 67 71 77 82 85 87 88 88 88 90 92 94 95 94 93 92 92 90 87 82 77 72 69 67 68 70 73 75 77 81 85 86
88 87 86 85 85 87 88 88 89 91 93 97 100 99 96 92 87 85 84 80 77 73 69 67 65 65 64 62 59 60 60 60 61 63 67 72 76 80 83 85 86 88 89 90 91 91 90 89 88 87 83 78 73 71 71 73 74 77 80 83 86 86 84
90 87 86 85 87 92 94 94 94 95 96 98 99 99 99 96 91 88 84 81 79 76 72 69 67 66 66 63 60 58 58 57 57 56 57 60 63 66 70 74 78 81 84 86 88 89 90 88 86 86 86 84 81 78 75 75 77 81 83 87 88 86 84
96 93 91 92 94 96 97 97 98 98 99 99 99 99 99 98 95 92 89 86 83 80 79 77 74 72 71 69 66 63 60 58 57 56 55 55 56 57 59 61 65 68 72 77 81 85 89 88 87 89 90 88 85 82 80 80 83 86 88 89 89 86 85
99 97 97 97 96 95 96 97 98 98 98 98 99 99 100 100 97 92 89 88 85 82 81 81 80 78 77 76 74 72 68 64 62 59 57 56 54 54 54 54 56 58 61 66 71 77 81 84 87 90 91 91 90 88 86 86 88 91 93 93 90 87 86
100 100 99 99 98 97 98 99 99 99 99 98 98 99 100 101 98 93 90 89 88 86 84 83 82 81 80 80 79 77 73 70 68 66 64 62 58 55 54 52 52 53 55 58 61 64 69 76 83 86 87 91 93 91 90 89 90 92 94 93 91 89 88
100 101 100 100 100 100 101 101 100 100 99 98 98 98 99 99 96 92 90 87 85 83 81 80 79 78 77 77 76 75 73 71 71 71 70 67 64 61 59 58 55 54 55 56 56 56 58 67 77 81 83 87 90 90 90 90 90 92 92 92 90 88 88
98 98 98 98 97 97 97 97 96 96 95 94 94 94 92 91 89 85 83 81 78 76 75 73 73 71 71 72 72 72 73 73 72 71 69 67 64 62 61 61 60 59 60 60 59 58 58 62 70 76 81 87 90 89 88 88 89 91 91 90 89 89 91
88 88 88 87 85 84 84 84 84 84 83 82 82 81 79 79 78 76 75 74 73 73 72 70 68 66 66 67 68 69 70 72 73 72 71 69 67 64 62 60 60 62 63 63 62 62 63 66 69 73 78 87 94 94 91 90 91 92 92 92 93 94 95
79 78 78 77 77 77 78 78 77 76 76 75 75 74 72 71 69 67 66 65 64 62 60 59 58 58 58 58 59 60 62 64 68 70 69 70 70 69 64 60 60 62 63 64 63 63 65 69 72 72 74 82 92 97 97 96 96 95 95 95 96 96 96
79 78 79 79 80 81 82 81 80 79 78 77 78 78 76 74 73 70 67 67 66 63 60 58 56 56 55 54 55 57 57 59 62 63 63 66 69 67 63 60 63 67 67 66 64 61 62 67 70 71 71 76 87 97 100 98 98 98 97 97 97 96 95
83 85 87 88 88 89 88 86 83 82 81 82 82 82 81 80 78 76 74 74 75 74 71 70 68 66 65 63 63 65 65 65 66 65 65 68 69 66 63 63 66 70 73 73 70 64 62 65 68 70 70 72 83 95 101 99 98 98 98 98 98 96 95
90 94 95 94 91 89 87 84 83 83 85 86 87 88 89 88 86 85 84 84 83 82 80 80 79 78 78 78 78 78 78 78 79 77 77 81 83 82 81 79 75 73 73 75 75 72 66 64 68 70 70 73 83 93 98 100 100 99 98 98 96 94 92
95 95 92 90 88 86 84 84 85 86 88 91 92 93 94 95 95 95 95 96 94 91 89 87 87 87 87 87 88 89 89 90 91 90 90 95 99 99 100 97 91 85 78 74 76 76 70 66 69 71 72 78 87 91 95 100 100 98 97 96 93 90 87
93 89 85 85 85 84 83 84 85 86 90 93 95 95 95 97 99 100 100 100 98 96 93 92 93 94 94 94 96 97 97 97 97 97 97 100 103 102 101 101 101 98 88 80 80 80 73 68 69 72 75 83 88 89 93 98 99 97 95 93 89 86 84
88 86 86 85 84 83 84 84 84 85 89 92 95 97 98 98 99 100 100 100 99 97 96 95 96 98 98 98 99 100 100 99 99 99 100 101 101 100 99 100 101 101 97 92 89 83 74 69 71 76 80 85 87 89 95 98 97 94 91 88 86 85 84
83 84 84 83 82 82 83 83 84 86 89 92 95 96 97 99 99 100 100 99 99 98 96 96 97 99 99 100 99 99 100 99 99 100 101 97 94 97 100 100 100 102 102 99 92 81 74 74 79 82 84 85 86 92 97 97 94 90 87 86 85 85 83
82 81 81 82 84 86 84 82 85 88 90 92 95 96 97 99 100 99 99 99 99 97 96 97 98 98 99 100 99 98 99 100 99 101 100 95 91 94 100 101 101 100 98 91 84 79 78 81 83 83 84 85 89 95 96 92 89 87 86 85 85 84 83
82 82 82 84 86 87 86 84 86 89 92 94 97 97 98 98 98 98 99 99 98 97 97 98 98 98 98 99 98 99 100 100 100 100 100 98 94 91 91 93 93 90 86 83 81 82 82 83 83 83 85 90 94 95 91 87 87 86 85 84 84 83 81
84 85 84 83 83 83 84 85 88 92 94 96 98 99 98 98 98 98 98 97 97 96 96 97 97 98 99 98 96 98 99 99 100 100 99 100 99 96 92 92 91 90 89 88 88 87 86 86 87 88 92 95 95 91 87 86 86 86 85 84 81 78 74
88 88 88 88 88 87 88 90 92 94 95 97 99 100 99 98 98 97 97 96 95 95 96 97 97 97 97 97 97 98 98 98 100 101 99 99 100 100 99 99 98 98 99 98 97 95 93 93 94 96 98 95 90 87 87 87 86 85 83 78 72 68 66
90 90 92 94 94 94 96 96 95 94 95 98 100 100 99 98 97 97 96 95 94 94 94 96 97 97 96 96 97 99 99 99 100 100 100 100 100 99 100 100 100 100 100 100 100 99 99 99 100 99 95 90 86 86 87 85 82 78 73 67 63 62 62
88 87 91 94 94 96 98 98 96 96 97 99 100 100 100 100 98 97 96 95 94 94 94 94 95 97 98 98 98 98 99 100 100 99 99 100 100 99 99 99 100 100 100 100 100 101 101 100 97 93 89 87 86 84 81 76 72 68 63 61 60 60 61
86 85 88 91 94 96 96 95 95 97 98 100 100 100 100 100 98 97 97 96 95 95 95 94 94 96 98 99 99 99 98 98 99 98 98 99 99 99 99 100 100 100 101 100 100 100 98 95 91 88 86 84 80 76 71 68 65 62 61 62 62 62 62
86 85 86 87 89 94 96 95 94 96 99 100 100 99 99 99 99 99 98 97 97 98 97 97 96 96 98 99 99 100 100 99 98 98 98 98 99 98 99 100 100 100 100 99 97 94 91 87 85 82 79 76 72 69 66 65 64 64 64 64 63 63 62
89 85 85 84 84 86 89 90 91 94 97 98 97 97 97 98 100 100 100 98 98 99 98 96 96 96 98 99 99 100 100 99 98 99 100 99 98 97 96 96 96 95 94 91 89 86 83 80 77 74 71 70 69 67 66 65 65 64 63 62 61 60 60
95 90 87 86 85 83 82 81 84 87 90 93 93 92 91 92 94 97 97 96 97 99 98 97 96 97 98 99 99 100 99 97 97 97 96 94 92 91 90 90 89 88 87 84 81 78 75 72 70 68 67 66 65 64 64 63 63 62 62 62 62 62 62
95 94 91 89 88 88 85 82 80 80 81 82 84 85 87 88 89 92 95 96 98 100 99 98 99 99 100 100 100 99 99 97 96 95 94 92 89 85 83 82 81 80 78 74 71 68 67 66 65 65 65 64 64 63 63 63 64 64 64 64 64 64 64